User: anonymous   Login
Location: Newark
(49.7697°N, 2.7094°E)
Time: 19:36:47
(UTC+00:00)
Language:

NOAA 18 - Orbit

View from above orbital plane
View from above orbital plane
View from above satellite
View from above satellite

Ground track
Ground track

The orbit data is extracted from the following two-line orbital elements,

1 28654U 05018A   20101.16129183 +.00000083 +00000-0 +69599-4 0  9997
2 28654 099.0517 156.9274 0015126 066.2555 294.0201 14.12501675767275
Epoch (UTC): 10 April 2020 03:52:15
Eccentricity: 0.0015126
inclination: 99.0517°
perigee height: 840 km
apogee height: 862 km
right ascension of ascending node: 156.9274°
argument of perigee: 66.2555°
revolutions per day: 14.12501675
mean anomaly at epoch: 294.0201°
orbit number at epoch: 76727

The dashed part of the orbit path shows where the satellite is in the earth's shadow,  

DLR